Back to catalog

STARLINK-11385

AliveCommunicationsVLEO
NORAD 62014·PAYLOAD·🇺🇸 United States

Launched Nov 18, 2024 from Vandenberg Space Force Base

Loading…

Next Passes (next 24 hours)

TLE

FreshSource: CelesTrak SupGP

Epoch: Sep 14, 2026, 21:36 UTC

1 62014C 24213G   26257.90048611  .00012091  00000+0  99559-4 0  2576
2 62014  53.1577 188.6897 0001184  89.7445 161.0883 15.69713121    15

Track STARLINK-11385 in real time with AllMySat

Download on the App Store